(167612) = 1997 UZ18 = 2004 CF9

Discovered at Kitt Peak on 2004-02-11 by Spacewatch.

Orbit

Orbit type: Main Belt

Note: WebGL enabled browser required.

epoch2023-09-13.0
epoch JD2460200.5
perihelion date2019-03-01.39325
perihelion JD2458543.89325
argument of perihelion (°)22.76817
ascending node (°)85.77102
inclination (°)3.69667
eccentricity0.0328891
perihelion distance (AU)2.8786576
Tisserand w.r.t. Jupiter3.3
ΔV w.r.t. Earth (km/sec)10.6
semimajor axis (AU)2.9765537
mean anomaly (°)317.94551
mean daily motion (°/day)0.19192580
aphelion distance (AU)3.074
period (years)5.14
P-vector [x]-0.31715020
P-vector [y]0.85989090
P-vector [z]0.40000423
Q-vector [x]-0.94619313
Q-vector [y]-0.31549414
Q-vector [z]-0.07198623
absolute magnitude16.14
phase slope0.15
uncertainty0
referenceMPEC 2024-A26
observations used411
oppositions15
arc length (days)9562
first opposition used1997
last opposition used2024
residual rms (arc-secs)0.68
perturbers coarse indicatorM-v
perturbers precise indicator003Ek
first observation date used1997-10-28.0
last observation date used2024-01-02.0
computer nameMPCLINUX
JD of orbit computation2456670.930966
perihelion JD uncertainty (days)3.0550E-04
argument of perihelion uncertainty (°)8.5080E-05
ascending node uncertainty (°)6.0397E-05
inclination uncertainty (°)3.7584E-06
eccentricity uncertainty 3.3181E-08
perihelion distance uncertainty (AU)1.0277E-07
Minimum Orbit Intersection Distances (in AU)
for orbit epoch: 2460200.5, reference: E2023-Y78
Mercury2.54645
Venus2.15981
Earth1.89452
Mars1.23349
Jupiter1.95647
Saturn6.16779
Uranus15.5249
Neptune26.8713

Observations

420 total observations over interval: 1997 10 28.41171 – 2024 01 02.320081
These data are available for download (format description).

Date (UT) J2000 RA J2000 Dec Magn Location Ref
1997 10 28.41171 03 29 26.41 +15 24 45.9 20.4 V 691 – Steward Observatory, Kitt Peak-Spacewatch MPS 144
1997 10 28.44536 03 29 24.83 +15 24 41.5 20.5 V 691 – Steward Observatory, Kitt Peak-Spacewatch MPS 144
1997 10 28.46798 03 29 23.80 +15 24 37.8 20.6 V 691 – Steward Observatory, Kitt Peak-Spacewatch MPS 144
1997 11 02.49261 03 25 25.75 +15 12 45.3 20.5 V 691 – Steward Observatory, Kitt Peak-Spacewatch MPS 144
1997 11 02.50592 03 25 25.09 +15 12 42.8 20.0 V 691 – Steward Observatory, Kitt Peak-Spacewatch MPS 144
1997 11 02.51910 03 25 24.43 +15 12 41.4 20.1 V 691 – Steward Observatory, Kitt Peak-Spacewatch MPS 144
2004 01 17.27162 09 12 06.70 +20 03 35.9 19.9   644 – Palomar Mountain/NEAT MPS 98939
2004 01 17.30750 09 12 05.06 +20 03 46.3 20.7   644 – Palomar Mountain/NEAT MPS 98939
2004 01 17.34959 09 12 03.13 +20 03 58.8 20.2   644 – Palomar Mountain/NEAT MPS 98939
2004 01 28.26789 09 03 11.14 +20 55 43.2 20.4 V 691 – Steward Observatory, Kitt Peak-Spacewatch MPS 98939
2004 01 28.29572 09 03 09.64 +20 55 51.2 20.4 V 691 – Steward Observatory, Kitt Peak-Spacewatch MPS 98939
2004 01 28.32757 09 03 07.95 +20 56 00.0 20.5 V 691 – Steward Observatory, Kitt Peak-Spacewatch MPS 98939
2004 02 11.24193 08 51 05.48 +21 55 20.7 20.2 V 291 – LPL/Spacewatch II MPS 98939
2004 02 11.24610 08 51 05.26 +21 55 21.6 20.2 V 291 – LPL/Spacewatch II MPS 98939
2004 02 11.25036 08 51 05.03 +21 55 22.5 20.2 V 291 – LPL/Spacewatch II MPS 98939
2004 02 12.28916 08 50 13.17 +21 59 12.1 20.5 V 691 – Steward Observatory, Kitt Peak-Spacewatch MPS 98939
2004 02 12.29821 08 50 12.71 +21 59 13.9 20.5 V 691 – Steward Observatory, Kitt Peak-Spacewatch MPS 98939
2004 02 12.30595 08 50 12.31 +21 59 15.7 20.5 V 691 – Steward Observatory, Kitt Peak-Spacewatch MPS 98939
2004 04 15.181200 08 39 58.876 +22 11 23.10 21.48 V 645 – Apache Point-Sloan Digital Sky Survey MPS 137049
2004 04 15.184672 08 39 58.987 +22 11 22.48 22.33   645 – Apache Point-Sloan Digital Sky Survey MPS 137049
2005 04 11.40122 15 00 52.20 -12 57 03.6 20.0 R 695 – Kitt Peak MPS 134867
2005 04 11.48194 15 00 49.04 -12 56 50.5   695 – Kitt Peak MPS 134867
2005 05 04.24979 14 43 33.26 -11 49 52.1 20.3 V 691 – Steward Observatory, Kitt Peak-Spacewatch MPS 134867
2005 05 04.26721 14 43 32.38 -11 49 49.0 20.4 V 691 – Steward Observatory, Kitt Peak-Spacewatch MPS 134867
2005 05 04.28464 14 43 31.48 -11 49 46.2 20.2 V 691 – Steward Observatory, Kitt Peak-Spacewatch MPS 134867
2005 05 10.20839 14 38 42.25 -11 32 57.1 20.0 V 691 – Steward Observatory, Kitt Peak-Spacewatch MPS 134003
2005 05 10.22623 14 38 41.38 -11 32 53.6 20.6 V 691 – Steward Observatory, Kitt Peak-Spacewatch MPS 134003
2005 05 10.24404 14 38 40.47 -11 32 50.9 20.6 V 691 – Steward Observatory, Kitt Peak-Spacewatch MPS 134003
2005 05 16.17358 14 34 03.87 -11 17 45.9 20.9 V 691 – Steward Observatory, Kitt Peak-Spacewatch MPS 134867
2005 05 16.19095 14 34 03.03 -11 17 43.3 20.9 V 691 – Steward Observatory, Kitt Peak-Spacewatch MPS 134867
2005 05 16.20832 14 34 02.21 -11 17 40.7 20.9 V 691 – Steward Observatory, Kitt Peak-Spacewatch MPS 134867
2005 05 17.26934 14 33 14.74 -11 15 13.9 19.6 R G96 – Mt. Lemmon Survey MPS 134867
2005 05 17.27432 14 33 14.53 -11 15 13.1 20.1 R G96 – Mt. Lemmon Survey MPS 134867
2005 05 17.27923 14 33 14.26 -11 15 12.7 19.9 R G96 – Mt. Lemmon Survey MPS 134867
2005 05 17.28411 14 33 14.07 -11 15 12.0 19.5 R G96 – Mt. Lemmon Survey MPS 134867
2007 09 13.45977 02 10 09.12 +08 10 37.8 20.8 V G96 – Mt. Lemmon Survey MPS 215121
2007 09 13.46526 02 10 08.97 +08 10 36.8 20.9 V G96 – Mt. Lemmon Survey MPS 215121
2007 09 13.47075 02 10 08.90 +08 10 36.1 20.9 V G96 – Mt. Lemmon Survey MPS 215121
2007 09 13.47628 02 10 08.79 +08 10 35.7 20.6 V G96 – Mt. Lemmon Survey MPS 215121
2007 10 11.37413 01 54 47.95 +06 36 07.1 20.4 V G96 – Mt. Lemmon Survey MPS 218637
2007 10 11.37933 01 54 47.70 +06 36 05.7 20.3 V G96 – Mt. Lemmon Survey MPS 218637
2007 10 11.38454 01 54 47.44 +06 36 04.8 19.4 V G96 – Mt. Lemmon Survey MPS 218637
2007 10 11.38968 01 54 47.19 +06 36 03.3 19.5 V G96 – Mt. Lemmon Survey MPS 218637
2007 10 15.21033 01 51 49.26 +06 20 27.8 20.3 V 691 – Steward Observatory, Kitt Peak-Spacewatch MPS 220493
2007 10 15.22560 01 51 48.52 +06 20 24.3 20.1 V 691 – Steward Observatory, Kitt Peak-Spacewatch MPS 220493
2007 10 15.24383 01 51 47.64 +06 20 19.9 20.1 V 691 – Steward Observatory, Kitt Peak-Spacewatch MPS 220493
2007 10 19.18413 01 48 38.60 +06 04 21.6 20.1 V 691 – Steward Observatory, Kitt Peak-Spacewatch MPS 222507
2007 10 19.20180 01 48 37.73 +06 04 17.4 20.2 V 691 – Steward Observatory, Kitt Peak-Spacewatch MPS 222507
2007 10 19.21946 01 48 36.85 +06 04 13.1 20.3 V 691 – Steward Observatory, Kitt Peak-Spacewatch MPS 222507
2007 10 19.35131 01 48 30.27 +06 03 40.9 20.4 V G96 – Mt. Lemmon Survey MPS 220493
2007 10 19.35779 01 48 29.98 +06 03 39.4 20.0 V G96 – Mt. Lemmon Survey MPS 220493
2007 10 19.36435 01 48 29.62 +06 03 37.6 20.2 V G96 – Mt. Lemmon Survey MPS 220493
2007 10 19.37086 01 48 29.26 +06 03 36.1 20.1 V G96 – Mt. Lemmon Survey MPS 220493
2008 11 08.44353 08 27 11.26 +20 31 25.4 21.5 V G96 – Mt. Lemmon Survey MPS 265105
2008 11 08.45347 08 27 11.59 +20 31 25.5 21.2 V G96 – Mt. Lemmon Survey MPS 265105
2008 11 08.46338 08 27 11.91 +20 31 24.9 21.6 V G96 – Mt. Lemmon Survey MPS 265105
2008 11 08.47310 08 27 12.24 +20 31 25.1 21.2 V G96 – Mt. Lemmon Survey MPS 265105
2008 11 24.38654 08 33 40.68 +20 31 40.9 20.9 V G96 – Mt. Lemmon Survey MPS 267284
2008 11 24.39328 08 33 40.75 +20 31 41.1 21.0 V G96 – Mt. Lemmon Survey MPS 267284
2008 11 24.40005 08 33 40.82 +20 31 41.7 20.6 V G96 – Mt. Lemmon Survey MPS 267284
2008 11 24.40678 08 33 40.89 +20 31 42.1 20.8 V G96 – Mt. Lemmon Survey MPS 267284
2008 12 22.36172 08 29 41.57 +21 31 22.8 20.4 V 691 – Steward Observatory, Kitt Peak-Spacewatch MPS 269927
2008 12 22.37987 08 29 40.97 +21 31 26.7 20.3 V 691 – Steward Observatory, Kitt Peak-Spacewatch MPS 269927
2008 12 22.39801 08 29 40.41 +21 31 30.0 20.4 V 691 – Steward Observatory, Kitt Peak-Spacewatch MPS 269927
2008 12 30.35938 08 24 56.09 +22 00 29.1 19.7 V 691 – Steward Observatory, Kitt Peak-Spacewatch MPS 271610
2008 12 30.37750 08 24 55.14 +22 00 34.2 20.3 V 691 – Steward Observatory, Kitt Peak-Spacewatch MPS 271610
2008 12 30.39562 08 24 54.35 +22 00 38.6 20.3 V 691 – Steward Observatory, Kitt Peak-Spacewatch MPS 271610
2009 01 02.42363 08 22 44.97 +22 12 28.2 20.3 V G96 – Mt. Lemmon Survey MPS 271610
2009 01 02.43275 08 22 44.54 +22 12 30.3 20.3 V G96 – Mt. Lemmon Survey MPS 271610
2009 01 02.44190 08 22 44.14 +22 12 32.6 20.3 V G96 – Mt. Lemmon Survey MPS 271610
2009 01 02.45105 08 22 43.75 +22 12 34.6 20.3 V G96 – Mt. Lemmon Survey MPS 271610
2009 01 18.16695 08 09 28.56 +23 15 09.0   691 – Steward Observatory, Kitt Peak-Spacewatch MPS 276012
2009 01 18.18512 08 09 27.55 +23 15 13.1   691 – Steward Observatory, Kitt Peak-Spacewatch MPS 276012
2009 01 18.20328 08 09 26.50 +23 15 17.9   691 – Steward Observatory, Kitt Peak-Spacewatch MPS 276012
2009 01 25.33682 08 02 57.30 +23 41 16.0 20.1 V 703 – Catalina Sky Survey MPS 276012
2009 01 25.34472 08 02 56.79 +23 41 18.0 20.1 V 703 – Catalina Sky Survey MPS 276012
2009 01 25.35254 08 02 56.43 +23 41 19.6 20.0 V 703 – Catalina Sky Survey MPS 276012
2009 01 25.36044 08 02 55.93 +23 41 20.7 20.5 V 703 – Catalina Sky Survey MPS 276012
2009 01 26.22240 08 02 09.85 +23 44 15.6 20.1 V G96 – Mt. Lemmon Survey MPS 276012
2009 01 26.22780 08 02 09.52 +23 44 16.7 19.9 V G96 – Mt. Lemmon Survey MPS 276012
2009 01 26.23391 08 02 09.16 +23 44 17.9 20.2 V G96 – Mt. Lemmon Survey MPS 276012
2009 01 26.25189 08 02 08.19 +23 44 21.8 20.0 V G96 – Mt. Lemmon Survey MPS 276012
2009 01 29.08570 07 59 38.16 +23 53 34.3   691 – Steward Observatory, Kitt Peak-Spacewatch MPS 276012
2009 01 29.10336 07 59 37.18 +23 53 37.8   691 – Steward Observatory, Kitt Peak-Spacewatch MPS 276012
2009 01 29.12100 07 59 36.24 +23 53 41.1   691 – Steward Observatory, Kitt Peak-Spacewatch MPS 276012
2009 02 14.12766 07 47 31.33 +24 32 48.2 20.4 V 691 – Steward Observatory, Kitt Peak-Spacewatch MPS 277430
2009 02 14.14785 07 47 30.57 +24 32 50.6 20.4 V 691 – Steward Observatory, Kitt Peak-Spacewatch MPS 277430
